Погода в Старом Погосте

Россия / Тверская область     56°42′37″N   36°04′24″E
темп.,
°C
ветер,
м/с
пор.,
м/с
влажн.,
%
обл.,
%
осадки,
мм/ч
давл.,
гПа
погр.,
м
9 мая, вс
вс900:00+5ссз61289100 1.7 1005832
03:00+3сз61488100 2.0 1007770
06:00+3сз71390100 0.0 1009783
09:00+3ссз61179100 0.0 1012956
12:00+9ссз71051100 0.0 10131952
15:00+11ссз61045100 0.0 10152330
18:00+11ссз58485 0.0 10171280
21:00+5сз36685 0.0 102072
10 мая, пн
пн1000:00+3сз35760 0.0 102387
03:00+2ссз22790 0.0 102516
06:00+3ссз11745 0.0 102732
09:00+9ссв01506 0.0 1028446
12:00+13ссз12414 0.0 10281149
15:00+15ссв11361 0.0 10271486
18:00+14в11405 0.0 10271138
21:00+8вюв22575 0.0 102911
11 мая, вт
вт1100:00+6юв116920 0.0 102910
03:00+5вюв117351 0.0 103010
06:00+6в227370 0.0 103042
09:00+12всв345486 0.0 1030452
12:00+16всв454296 0.0 1029987
15:00+18всв4540100 0.0 10281128
18:00+16всв4755100 0.0 1027432
21:00+11всв367647 0.0 102894
12 мая, ср
ср1200:00+9в35875 0.0 102888
03:00+9в34940 0.0 102871
06:00+10в259514 0.0 1028137
09:00+16всв467670 0.0 1027519
12:00+20всв68615 0.0 10241212
15:00+21в71261100 1.3 10221734
18:00+16в7148551 2.3 1020715
21:00+14вюв6148853 2.5 1020855
13 мая, чт
чт1300:00+9ююв48932 0.0 1022354
03:00+6вюв249849 0.0 1023100
06:00+8в399188 0.0 1022269
09:00+14вюв5975100 0.0 1020664
12:00+17ююв5863100 0.0 10191319
15:00+17ююв577094 0.9 10181303
18:00+17ююв367098 0.5 1018890
21:00+12ююв2286100 0.6 101815